Regional Weather Roundup
Issued by NWS

Home | Current Version | Previous Version | Graphics & Text | Print | Product List | Glossary On
Versions: 1 2 3 4 5 6 7 8 9 10 11 12 13 14 15 16 17 18 19 20 21 22 23 24 25 26 27 28 29 30 31 32 33 34 35 36 37 38 39 40 41 42 43 44 45 46 47 48 49 50
000
ASUS43 KFSD 110310
RWRSD

WEATHER ROUNDUP FOR SOUTH DAKOTA
NATIONAL WEATHER SERVICE SIOUX FALLS SD
900 PM CST SUN DEC 10 2017

NOTE: "FAIR" INDICATES FEW OR NO CLOUDS BELOW 12,000 FEET WITH NO
SIGNIFICANT WEATHER AND/OR OBSTRUCTIONS TO VISIBILITY.


SDZ001>005-009-010-012>017-110400-
NORTHWEST AND NORTH CENTRAL SOUTH DAKOTA

CITY           SKY/WX    TMP DP  RH WIND       PRES   REMARKS
BUFFALO          N/A     38  18  44 W20       30.00F
FAITH            N/A     44  19  36 W15       30.04S
MOBRIDGE       CLOUDY    37  28  70 CALM      29.94F
$$

SDZ012>016-024>037-041>051-057-063-072>074-110400-
SOUTHWEST AND SOUTH CENTRAL SOUTH DAKOTA

CITY           SKY/WX    TMP DP  RH WIND       PRES   REMARKS
RAPID CTY ARPT CLOUDY    52   7  16 NW16      30.12S
PIERRE         CLOUDY    45  23  42 W9        30.01F
CUSTER         CLOUDY    43   4  19 N3        30.19F
ELLSWORTH AFB  CLOUDY    53   6  15 NW16      30.11R
PHILIP         CLOUDY    50  16  25 NW7       30.07F
PINE RIDGE     CLOUDY    44  17  33 W6        30.18S
SPEARFISH      FAIR      50  10  20 W16G22    30.15F
WINNER         FAIR      46  18  32 W16       30.05F
$$

SDZ004>011-016>023-039-040-110400-
NORTHEAST SOUTH DAKOTA

CITY           SKY/WX    TMP DP  RH WIND       PRES   REMARKS
ABERDEEN       CLOUDY    33  28  81 W5        29.96F WCI  29
WATERTOWN      CLOUDY    34  28  79 W8        29.95S WCI  27
BROOKINGS      CLOUDY    32  28  85 SW8       29.97F WCI  25
SISSETON         N/A     34  27  75 SE8       29.90F WCI  27
$$

SDZ017-020-022-023-036>040-048>070-110400-
SOUTHEAST SOUTH DAKOTA

CITY           SKY/WX    TMP DP  RH WIND       PRES   REMARKS
SIOUX FALLS    CLOUDY    34  29  82 S3        29.99F
HURON          CLOUDY    36  27  69 W5        29.99F
CHAMBERLAIN    CLOUDY    40  25  53 W7        30.02F
MITCHELL       CLOUDY    38  27  64 W9        30.01F
YANKTON        CLOUDY    37  26  64 SW6       30.02F
$$

ABBREVIATIONS USED IN REMARKS
   TC - TEMPERATURE IN CELSIUS
  WCI - WIND CHILL INDEX
   HX - HEAT INDEX
  VSB - VISIBILITY




USA.gov is the U.S. government's official web portal to all federal, state and local government web resources and services.